Springfield, OH

11:49 PM EST on February 21, 2017 (GMT -0500)
Springfield-Beckley Municipal

Weather History for KSGH - October, 2011

Change the Weather History Date:

Monday, October 10, 2011

  Actual Average (KFFO) Record (KFFO)
Temperature  
Mean Temperature 64 °F -  
Max Temperature 79 °F 65 °F 86 °F (2010)
Min Temperature 50 °F 42 °F 34 °F (2012)
Growing Degree Days 14 (Base 50)    
Moisture  
Dew Point 48 °F    
Average Humidity 64    
Maximum Humidity 92    
Minimum Humidity 30    
Precipitation  
Precipitation 0.00 in - - ()
Sea Level Pressure  
Sea Level Pressure 30.23 in    
Wind  
Wind Speed 6 mph (ESE)    
Max Wind Speed 10 mph    
Max Gust Speed -    
Visibility 10 miles    
Events      
Averages and records for this station are not official NWS values.
T = Trace of Precipitation, MM = Missing Value Source: NWS Daily Summary

Daily Weather History Graph

Daily Weather History Graph

Search for Another Location

Airport or City:

Trip Planner

Search our weather history database for the weather conditions in past years. The results will help you decide how hot, cold, wet, or windy it might be!

Date:

Astronomy

Oct. 10, 2011 Rise Set
Actual Time 7:40 AM EDT 7:03 PM EDT
Civil Twilight 7:13 AM EDT 7:30 PM EDT
Nautical Twilight 6:41 AM EDT 8:02 PM EDT
Astronomical Twilight 6:10 AM EDT 8:33 PM EDT
Moon 6:07 PM EDT (10/10) 6:20 AM EDT (10/10)
Length of Visible Light 12h 17m
Length of Day
11h 23m
Waxing Gibbous, 98% of the Moon is Illuminated
Oct 10
Waxing Gibbous
Oct 11
Full
Oct 19
Last Quarter
Oct 26
New
Nov 2
First Quarter

Hourly Weather History & Observations

Time (EDT) Temp. Dew Point Humidity Pressure Visibility Wind Dir Wind Speed Gust Speed Precip Events Conditions
12:56 AM 57.9 °F 48.9 °F 72% 30.29 in 10.0 mi ESE 6.9 mph - N/A   Clear
1:56 AM 59.0 °F 48.9 °F 69% 30.28 in 10.0 mi ESE 6.9 mph - N/A   Clear
2:56 AM 59.9 °F 48.9 °F 67% 30.28 in 10.0 mi ESE 9.2 mph - N/A   Clear
3:56 AM 59.9 °F 48.9 °F 67% 30.27 in 10.0 mi East 6.9 mph - N/A   Clear
4:56 AM 56.8 °F 47.8 °F 72% 30.26 in 10.0 mi ESE 5.8 mph - N/A   Clear
5:56 AM 54.0 °F 48.9 °F 83% 30.27 in 10.0 mi Calm Calm - N/A   Clear
6:56 AM 50.9 °F 46.9 °F 86% 30.29 in 10.0 mi ENE 4.6 mph - N/A   Clear
7:56 AM 50.0 °F 46.9 °F 89% 30.29 in 9.0 mi Calm Calm - N/A   Clear
8:56 AM 54.0 °F 50.9 °F 89% 30.30 in 10.0 mi ESE 3.5 mph - N/A   Clear
9:56 AM 59.0 °F 50.9 °F 74% 30.31 in 10.0 mi SE 3.5 mph - N/A   Clear
10:56 AM 64.9 °F 50.9 °F 60% 30.30 in 10.0 mi Variable 4.6 mph - N/A   Clear
11:56 AM 66.9 °F 52.0 °F 59% 30.28 in 9.0 mi ESE 6.9 mph - N/A   Clear
12:56 PM 73.9 °F 52.9 °F 48% 30.26 in 10.0 mi Variable 4.6 mph - N/A   Clear
1:56 PM 77.0 °F 50.0 °F 39% 30.23 in 10.0 mi SE 5.8 mph - N/A   Clear
2:56 PM 79.0 °F 45.0 °F 30% 30.19 in 10.0 mi SE 9.2 mph - N/A   Clear
3:56 PM 79.0 °F 45.0 °F 30% 30.17 in 10.0 mi ESE 8.1 mph - N/A   Clear
4:56 PM 77.0 °F 43.9 °F 31% 30.16 in 10.0 mi ESE 8.1 mph - N/A   Clear
5:56 PM 75.9 °F 45.0 °F 33% 30.14 in 10.0 mi East 10.4 mph - N/A   Clear
6:56 PM 66.9 °F 46.9 °F 49% 30.14 in 10.0 mi East 6.9 mph - N/A   Clear
7:56 PM 63.0 °F 48.9 °F 60% 30.15 in 10.0 mi East 6.9 mph - N/A   Clear
8:56 PM 55.9 °F 50.0 °F 80% 30.15 in 10.0 mi East 5.8 mph - N/A   Clear
9:56 PM 55.9 °F 47.8 °F 74% 30.15 in 10.0 mi East 6.9 mph - N/A   Clear
10:56 PM 50.9 °F 47.8 °F 89% 30.15 in 10.0 mi East 5.8 mph - N/A   Clear
11:56 PM 50.0 °F 47.8 °F 92% 30.14 in 10.0 mi East 4.6 mph - N/A   Clear